Regional Weather Roundup
Issued by NWS

Home | Current Version | Previous Version | Text Only | Print | Product List | Glossary Off
Versions: 1 2 3 4 5 6 7 8 9 10 11 12 13 14 15 16 17 18 19 20 21 22 23 24 25 26 27 28 29 30 31 32 33 34 35 36 37 38 39 40 41 42 43 44 45 46 47 48 49 50

000
ASUS43 KIND 250109
RWRIN

WEATHER ROUNDUP FOR INDIANA
NATIONAL WEATHER SERVICE INDIANAPOLIS IN
900 PM EDT SAT SEP 24 2016

NOTE: "FAIR" INDICATES FEW OR NO CLOUDS BELOW 12,000 FEET WITH NO
SIGNIFICANT WEATHER AND/OR OBSTRUCTIONS TO VISIBILITY.

* - STATION DOES NOT REPORT WEATHER SUCH AS PRECIPITATION OR FOG.

+ - STATION NOT QUALITY CONTROLLED BY THE NATIONAL WEATHER SERVICE.
    USE DATA WITH CAUTION...ESPECIALLY DEWPOINT AND RELATIVE
    HUMIDITY OBSERVATIONS.

INZ001>003-010>013-019-020-250200-
NORTHWEST INDIANA

CITY           SKY/WX    TMP DP  RH WIND       PRES   REMARKS
GARY /AIRPORT/ PTCLDY    72  68  88 E9        30.12S
KNOX *+        CLEAR     68  45  42 E5        30.12S
LA PORTE +     CLEAR     70  66  86 E5        30.14R
MICHIGAN CITY+ CLEAR     68  63  83 CALM      30.13S
MONTICELLO +   CLEAR     71  62  72 CALM      30.10F
RENSSELAER +   CLEAR     72  64  78 E6        30.11S
VALPARAISO     CLEAR     67  62  84 E5        30.13R

$$

LMZ046-743>745-250200-
SOUTHERN LAKE MICHIGAN

STATION/POSITION TIME  TEMP    WIND        PRES    WAVE
                       AIR SEA DIR/SP/G            HT
                 (UTC) (F)     (DEG/KT/KT) (MB)    (FT)
BURNS HARBOR     0010   68      70/  9/ 11 1020.0F
MICHIGAN CITY    0000   72      50/  7/  8   N/A
5NW MICH CITY    0100   71 71   80/  8/ 10   N/A     1

$$

INZ004-005-014>016-021>024-250200-
NORTH CENTRAL INDIANA

CITY           SKY/WX    TMP DP  RH WIND       PRES   REMARKS
GOSHEN         CLEAR     65  58  78 E6        30.15S
LOGANSPORT +   CLEAR     68  63  83 E5        30.13S
PERU/GRISSOM   CLEAR     70  64  82 E6        30.12R
ROCHESTER +    CLEAR     68  64  88 E5        30.14R
SOUTH BEND     CLEAR     68  61  78 E5        30.15S
WARSAW +       CLEAR     64  54  68 E6        30.15R

$$

INZ006>009-017-018-025>027-250200-
NORTHEAST INDIANA

CITY           SKY/WX    TMP DP  RH WIND       PRES   REMARKS
ANGOLA *+        N/A     63  52  67 E5        30.17S
AUBURN +       CLEAR     64  55  72 E5        30.17S
FORT WAYNE     CLEAR     67  58  72 E10       30.16S
HUNTINGTON +   CLEAR     67  60  78 E5        30.15R
KENDALLVILLE + CLEAR     65  57  73 E6        30.17S

$$

INZ028-029-035-036-043>045-051>053-250200-
WEST CENTRAL INDIANA

CITY           SKY/WX    TMP DP  RH WIND       PRES   REMARKS
CRAWFORDSVL +  CLEAR     71  68  88 E7        30.10S
GREENCASTLE +  CLEAR     72  70  94 E3        30.10S
LAFAYETTE      CLEAR     72  66  81 E8        30.10R
TERRE HAUTE    CLEAR     73  67  81 E3        30.07S

$$

INZ030>032-037>040-046>048-054>057-064-065-250200-
CENTRAL INDIANA

CITY           SKY/WX    TMP DP  RH WIND       PRES   REMARKS
COLUMBUS       CLEAR     72  70  94 NE6       30.10R
FISHERS *+     CLEAR     70  68  94 CALM      30.12
GREENWOOD *+   CLEAR     73  68  83 E6        30.11S
INDIANAPOLIS   PTCLDY    76  66  71 E9        30.10R
-EAGLE CREEK   CLEAR     75  66  73 E5        30.10S
MARION +       CLEAR     67  63  85 E6        30.15R
MT COMFORT *+  CLEAR     68  64  88 CALM      30.12S
SHELBYVILLE    CLEAR     73  65  75 E6        30.10S
ZIONSVILLE +   CLEAR     68  65  90 E3        30.12F

$$

INZ033-034-041-042-049-050-058-059-250200-
EAST CENTRAL INDIANA

CITY           SKY/WX    TMP DP  RH WIND       PRES   REMARKS
MUNCIE         CLEAR     70  64  81 E6        30.14R

$$

INZ060-061-067>069-081>083-085>088-250200-
SOUTHWEST INDIANA

CITY           SKY/WX    TMP DP  RH WIND       PRES   REMARKS
EVANSVILLE     CLEAR     78  67  68 CALM      30.05R
HUNTINGBURG *+   N/A     77  63  61 E5        30.06S
WASHINGTON +   CLEAR     73  69  87 MISG      30.05S

$$

INZ062-063-066-070>080-084-089>092-250200-
SOUTH CENTRAL AND SOUTHEAST INDIANA

CITY           SKY/WX    TMP DP  RH WIND       PRES   REMARKS
BLOOMINGTON    CLEAR     71  68  90 CALM      30.09S
MADISON *+     CLEAR     72  68  88 NE6       30.12R
NORTH VERNON + CLEAR    N/A N/A N/A NE6       30.11

$$




USA.gov is the U.S. government's official web portal to all federal, state and local government web resources and services.